DLH4RP EDDF-EDDV

Flight info

Callsign DLH4RP
Flight time N/A
Altitude 22000
Route MARUN3W MARUN Y153 WRB WRB1X
Aircraft E195/M-SDE3GILORVW/S

Departure

Time 2026-04-16 15:34
Airport Frankfurt Main Airport (EDDF)

Arrival

Time N/A
Airport Hannover Airport (EDDV)
Time Latitude Longitude Altitude Speed Heading
2026-04-16 14:41 50.04852 8.56948 355 ft 0 kts 295°
2026-04-16 15:22 50.04847 8.56963 361 ft 3 kts 294°
2026-04-16 15:23 50.04839 8.56992 364 ft 3 kts 295°
2026-04-16 15:23 50.04831 8.57019 363 ft 3 kts 283°
2026-04-16 15:23 50.04829 8.57047 362 ft 3 kts 241°
2026-04-16 15:23 50.04841 8.57068 364 ft 2 kts 207°
2026-04-16 15:24 50.04845 8.57071 363 ft 1 kts 204°
2026-04-16 15:24 50.04831 8.57061 364 ft 3 kts 205°
2026-04-16 15:24 50.04813 8.57048 360 ft 3 kts 205°
2026-04-16 15:24 50.04796 8.57037 355 ft 2 kts 205°
2026-04-16 15:25 50.04793 8.57035 355 ft 2 kts 205°
2026-04-16 15:27 50.04792 8.57034 355 ft 1 kts 205°
2026-04-16 15:27 50.04790 8.57032 355 ft 1 kts 205°
2026-04-16 15:27 50.04749 8.57002 356 ft 11 kts 205°
2026-04-16 15:27 50.04684 8.56955 361 ft 10 kts 204°
2026-04-16 15:28 50.04615 8.56914 356 ft 11 kts 196°
2026-04-16 15:28 50.04547 8.56889 360 ft 9 kts 192°
2026-04-16 15:28 50.04484 8.56868 358 ft 10 kts 192°
2026-04-16 15:28 50.04417 8.56848 361 ft 10 kts 190°
2026-04-16 15:29 50.04347 8.56829 359 ft 10 kts 191°
2026-04-16 15:29 50.04281 8.56847 358 ft 10 kts 127°
2026-04-16 15:29 50.04289 8.56957 361 ft 11 kts 70°
2026-04-16 15:29 50.04318 8.57079 367 ft 12 kts 70°
2026-04-16 15:30 50.04348 8.57203 362 ft 13 kts 69°
2026-04-16 15:30 50.04382 8.57343 360 ft 15 kts 70°
2026-04-16 15:30 50.04419 8.57500 363 ft 16 kts 69°
2026-04-16 15:30 50.04458 8.57660 368 ft 16 kts 69°
2026-04-16 15:31 50.04495 8.57820 363 ft 16 kts 71°
2026-04-16 15:31 50.04534 8.57983 364 ft 16 kts 70°
2026-04-16 15:31 50.04576 8.58157 366 ft 17 kts 69°
2026-04-16 15:31 50.04614 8.58314 371 ft 14 kts 70°
2026-04-16 15:32 50.04648 8.58460 370 ft 14 kts 70°
2026-04-16 15:32 50.04611 8.58578 369 ft 14 kts 160°
2026-04-16 15:32 50.04523 8.58613 369 ft 13 kts 187°
2026-04-16 15:32 50.04469 8.58510 369 ft 15 kts 248°
2026-04-16 15:33 50.04365 8.58077 367 ft 76 kts 249°
2026-04-16 15:33 50.04107 8.56984 364 ft 138 kts 249°
2026-04-16 15:33 50.03743 8.55294 415 ft 186 kts 252°
2026-04-16 15:33 50.03294 8.53277 945 ft 207 kts 252°
2026-04-16 15:34 50.02823 8.51144 1863 ft 204 kts 251°
2026-04-16 15:34 50.02257 8.49127 2970 ft 201 kts 237°
2026-04-16 15:34 50.01316 8.47681 4296 ft 183 kts 211°